LogoCoinalyze
    Ad-Free Version Home Markten Financieringspercentages
    Futures data
    • Aggregated data (Munten)
    • Individuele grafieken
    • Globale grafieken
    Meldingen
    TA
    Bitcoin Ethereum BNB Ripple Tron ZCash Dogecoin Monero Chainlink UNUS SED LEO Cardano Stellar Lumens Bitcoin Cash Litecoin Hedera Cronos Polkadot Ethereum Classic Algorand Cosmos Quant Dash VeChain Bitcoin SV BitTorrent Terra Decred Tezos The Graph Iota THETA MultiversX Decentraland NEO Chiliz Horizen Golem Basic Attention Token Qtum 0x DigiByte Beam RIF Token FTX Token FUNToken Holo aelf Ontology Zilliqa Enjin Coin Nano Ravencoin Mask Network Verge Siacoin Status WINk Waves IoTeX Power Ledger iExec RLC Steem Kyber Network Crystal Lisk Ark Ardor IOST WOO Network WAX Icon Storj Wanchain Loopring Bitcoin Diamond AdEx Bitcoin Gold Augur OmiseGO NEM MonaCoin BitShares Ren Komodo V Systems Nuls Mithril SOLVE Maker Aion EOS HedgeTrade Nebulas Bread Fetch.ai TomoChain Polygon Fantom Waltonchain GXChain Bytom Metaverse ETP MaidSafeCoin QASH
    Rangschikken op:
    Meer
    • API
    • Candlestick-patronen
    • Doneer
    • Contact
    • Sitemap
    • Privacy Policy
    • Disclaimer
    • Theme:
    Nederlands
    • English
    • Français
    • Русский
    • Deutsch
    • Türkçe
    • Português (BR)
    • Español
    • 한국어
    • 简体中文
    • 日本語
     
    Aanmelden / Registreren
    Markets/ Pepe/ PEPE naar EUR/ PEPEEUR Bybit
    Trades
    WL
    Chat
    Stats
    Nieuws
    ⦷
    AAA
    0.00000304 2330411.00000000 17:44:01
    0.00000304 2606474.00000000 17:44:01
    0.00000304 2593350.00000000 17:42:43
    0.00000304 2952938.00000000 17:42:43
    0.00000304 3269894.00000000 17:16:31
    0.00000304 2799270.00000000 17:16:31
    0.00000304 2837188.00000000 17:16:18
    0.00000304 2279720.00000000 17:16:18
    0.00000305 3190630.00000000 17:11:45
    0.00000305 3364368.00000000 17:00:15
    0.00000306 2969404.00000000 17:00:15
    0.00000306 2939130918.00000000 16:40:41
    0.00000305 680368533.00000000 16:32:39
    0.00000305 84697910.00000000 16:32:38
    0.00000305 1103530039.00000000 16:32:07
    0.00000304 3094802.00000000 16:20:09
    0.00000304 2622227.00000000 16:20:09
    0.00000303 5964214.00000000 15:49:21
    0.00000303 21300766.00000000 15:49:21
    0.00000303 21300766.00000000 15:49:21
    0.00000303 13064470.00000000 15:49:21
    0.00000303 34629577.00000000 15:37:01
    0.00000303 17902813.00000000 15:20:05
    0.00000303 8525149.00000000 15:20:05
    0.00000303 8525149.00000000 15:20:05
    0.00000302 104625000.00000000 15:17:14
    0.00000302 3262782.00000000 15:05:49
    0.00000302 3254137.00000000 15:05:49
    0.00000301 11448196.00000000 14:44:26
    0.00000301 24041213.00000000 14:44:26
    0.00000301 26044647.00000000 14:44:26
    0.00000301 8299942.00000000 14:44:26
    0.00000306 2843454.00000000 14:01:44
    0.00000307 3345517.00000000 14:01:44
    0.00000306 2781955.00000000 13:58:51
    0.00000306 2259236.00000000 13:58:44
    0.00000308 3249483.00000000 13:48:33
    0.00000308 309875673.00000000 13:47:55
    0.00000308 338887320.00000000 13:47:48
    0.00000305 5618544.00000000 13:42:27
    0.00000306 2711323.00000000 13:42:15
    0.00000304 2350610.00000000 13:37:14
    0.00000305 3196309.00000000 13:24:15
    0.00000306 2264036.00000000 13:24:15
    0.00000305 14112348.00000000 13:20:44
    0.00000305 106742149.00000000 13:01:09
    0.00000304 23620115.00000000 12:47:01
    0.00000307 19566138.00000000 12:37:05
    0.00000307 12939521.00000000 12:37:05
    0.00000307 25879043.00000000 12:37:05
    0.00000307 25879043.00000000 12:37:05
    0.00000308 14012345.00000000 12:35:45
    0.00000307 14039713.00000000 12:35:09
    0.00000307 14058018.00000000 12:35:05
    0.00000307 14039713.00000000 12:34:41
    0.00000307 14071778.00000000 12:34:20
    0.00000305 2832058.00000000 12:33:19
    0.00000319 2569277.00000000 12:31:07
    0.00000319 5784472.00000000 12:29:00
    0.00000319 2783558839.00000000 12:28:29
    0.00000319 10035919.00000000 12:28:28
    0.00000316 1450545.00000000 12:18:45
    0.00000318 2920217.00000000 11:42:39
    0.00000318 2587368.00000000 11:42:39
    0.00000316 2319414.00000000 11:30:14
    0.00000317 2487593.00000000 11:30:14
    0.00000316 23122959.00000000 11:24:02
    0.00000316 23122959.00000000 11:24:02
    0.00000316 8174386.00000000 11:20:59
    0.00000316 4925940.00000000 11:10:03
    0.00000316 25878507.00000000 11:09:38
    0.00000316 25878507.00000000 11:09:38
    0.00000315 11987913.00000000 11:01:10
    0.00000315 104625000.00000000 10:54:43
    0.00000316 29944525.00000000 10:40:48
    0.00000316 25899672.00000000 10:40:48
    0.00000316 25899672.00000000 10:40:48
    0.00000315 2305042.00000000 10:36:03
    0.00000315 2636301.00000000 10:36:03
    0.00000315 2850353.00000000 10:31:06
    0.00000315 3138755.00000000 10:31:06
    0.00000314 2223895.00000000 10:27:04
    0.00000314 2276284.00000000 10:27:04
    0.00000314 2397336.00000000 10:24:01
    0.00000314 2688802.00000000 10:24:01
    0.00000314 2236966.00000000 10:11:10
    0.00000314 3209403.00000000 10:11:10
    0.00000316 3172851.00000000 10:02:45
    0.00000316 2596128.00000000 10:02:45
    0.00000315 2722925.00000000 10:02:21
    0.00000316 3032442.00000000 10:02:21
    0.00000316 2681313.00000000 10:02:09
    0.00000316 3039880.00000000 10:02:09
    0.00000317 2821435.00000000 09:54:12
    0.00000316 3455168.00000000 09:54:01
    0.00000316 26086956.00000000 09:54:01
    0.00000316 26086956.00000000 09:54:01
    0.00000316 104625000.00000000 09:53:40
    0.00000317 2188638.00000000 09:47:05
    0.00000317 14327440.00000000 09:39:51
    Afmelden
    AAA
    Help
    🙂 🤣 😎 🤗 😛 😉 😜 🤑 🤔 😑 😴 😕 🙃 😲 😇 🙁 😢 😬 😟 😠 🕺 🏃 💪 ✌ 👌 👍 👎 👏 👋 🤝 🍺 🍻 🐋 🐟 🦈 🗽 🚄 ✈ 🛑 🚀 🏦 🌚 ⭐ 🌞 ⚡ 🏆 💰 💲 🔨 ❓ ❗ 💯 🔶 🏁
    ☺
    Aanmelden of Registreren en chat
    24 Uur
    Verandering
    -7.81%
    Volume
    17,845,463,026
    Hoog
    0.00000333
    Laag
    0.00000301
    7 Dagen
    Verandering
    -9.05%
    Volume
    132,551,693,259
    Hoog
    0.00000340
    Laag
    0.00000289
    30 Dagen
    Verandering
    +21.16%
    Volume
    608,162,812,392
    Hoog
    0.00000388
    Laag
    0.00000220
    DOGE, SHIB, PEPE, or Something Else: Which Meme Coin Can Make History in September? (3 AIs Weigh In)
    "DOGE remains the most likely to record the largest move in dollar terms and lead the entire sector," ChatGPT stated.
    cryptopotato.com
    Sept 3, 2026 00:41
    Pepe price rallies 25% as whale demand and futures interest surge
    Key takeaways Pepe has gained 25% this week, including a combined 22% advance over the previous two days. Seven whale transactions worth more than $1 million each occurred Thursday, the highest...
    coinjournal.net
    Aug 21, 2026 08:41
    PEPE Supply on Exchanges Just Took a Massive Hit – What’s Next?
    A drop in PEPE exchange balances has added to bullish expectations despite muted trader interest.
    cryptopotato.com
    Aug 6, 2026 20:02
    PEPE Exchange Outflows Hit Nearly 2-Year High as Whales Accumulate
    Pepe (PEPE) recorded its largest single-day exchange outflow since November 2024, with 4.54 trillion tokens leaving trading platforms, signaling that holders are moving supply away from immediate...
    beincrypto.com
    Aug 6, 2026 04:57
    Meme Coin Based on White House Shooter Conspiracy Rallies 320%
    $HENRY surged 300% after a 2023 Pepe tweet appeared to name the White House shooter, fueling a viral time-travel meme. The post Meme Coin Based on White House Shooter Conspiracy Rallies 320%...
    beincrypto.com
    Apr 27, 2026 16:11
    PEPE surges 4% as market sentiment improves, eyes Key resistance breakout
    Key takeaways Pepe extends gains on Wednesday, stretching its rally from the 50-day EMA. Derivatives data show heightened retail activity as risk-on sentiment returns to the market. Pepe (PEPE) is...
    coinjournal.net
    Apr 22, 2026 11:44
    Why The PEPE Price Could Stage A 55X Rally To Reach New $0.0001 ATH
    The PEPE price has now started to edge back into bullish conversations after the recent inflows into the crypto market. The last time PEPE’s weekly chart printed the kind of structure now...
    newsbtc.com
    Apr 21, 2026 15:30
    Pepe (PEPE) surges 9%, drawing interest from whales
    Key takeaways PEPE is up 9% in the last 24 hours, making it one of the best performers among the top 50 cryptocurrencies by market cap. The rally comes amid renewed interest from whales and retail...
    coinjournal.net
    Apr 16, 2026 07:40
    Murad Says SPX6900 (SPX) Is Primed for a Rally — Is He Right This Time?
    Crypto influencer Murad Mahmudov claims SPX6900 (SPX) is stabilizing at the same market cap level where Dogecoin (DOGE) and Pepe (PEPE) consolidated before their explosive rallies. The...
    beincrypto.com
    Apr 5, 2026 21:36
    The Shiba Inu Of This Cycle: Analyst Shares Why It Is Better To Buy PEPE Now
    In the bull market cycle of 2021-2022, the Shiba Inu meme coin made waves in a way that changed the face of meme coins forever. This came after Dogecoin’s initial 36,000% rally, and Shiba Inu...
    newsbtc.com
    Apr 4, 2026 07:30
    PEPE Explodes by 18% Amid Altcoin Rally, BTC Tapped $74K: Market Watch
    The frog-themed meme coin is today's biggest gainer, followed by TAO, DOT, and BONK.
    cryptopotato.com
    Mar 16, 2026 10:56
    Should PEPE traders brace for volatility as short squeeze potential builds?
    The memecoin market has seen its collective market capitalization drop by 48% over the past year, and 6.9% over the past month, according to CoinMarketCap. According to Glassnode, the memecoin...
    ambcrypto.com
    Mar 7, 2026 18:00
    Typ de opdracht simpelweg in de chat. Vervang nick1 door de echte nick
    • /ignore nick1 Negeer een chatgebruiker
    • /unignore nick1 Een chatgebruiker niet meer negeren
    • /ignorelist Toon chatgebruikers die je negeert